{"data":{"norad_id":68995,"intl_designator":"2026-100R","name":"ICEYE-X78","alt_names":[],"object_type":"PAYLOAD","status":"ACTIVE","operator":null,"country":"POL","launch_date":"2026-05-03","launch_site_code":"AFWTR","launch_vehicle":null,"mission":null,"orbit_class":"UNKNOWN","rcs_meters":null,"size_class":null,"mass_kg":null,"dimensions":null,"purposes":[],"wikipedia_slug":null,"has_3d_model":false,"image_url":null,"decayed_at":null,"tle_current":{"epoch":"2026-05-25T03:13:50.628000Z","epoch_age_seconds":59477,"freshness":"FRESH","line1":"1 68995U 26100R   26145.13461375  .00002601  00000+0  26439-3 0  9999","line2":"2 68995  97.7392  43.0174 0002135 160.4167 199.7134 14.91640778  3263","mean_motion":14.91640778,"eccentricity":0.0002135,"inclination_deg":97.7392,"raan_deg":43.0174,"arg_perigee_deg":160.4167,"mean_anomaly_deg":199.7134,"bstar":0.00026439,"rev_number":326,"period_min":96.537988317184,"perigee_km":591.33072494604,"apogee_km":594.30732316831,"semimajor_km":6970.9560240572,"source":"CELESTRAK","updated_at":"2026-05-25T13:38:08.810335Z"}}}